カタログに戻る

SL-8 DEB *

運用中LEO
NORAD 14801·DEBRIS·🇷🇺 Russia

打ち上げ Nov 28, 1975 から Plesetsk Cosmodrome

Loading…

次のパス (今後24時間)

TLE

最新Source: Space-Track

元期: Sep 14, 2026, 06:00 UTC

1 14801U 75112D   26257.25059509  .00001287  00000-0  23135-3 0  9992
2 14801  74.0568 298.9263 0004723 144.9362 332.3068 14.67746430501362

AllMySatでSL-8 DEB *をリアルタイム追跡

Download on the App Store